This is the latest recevied weather packets stored in our database for station/object KU9TRY. If no packets are shown the sender has not sent any weather packets the latest 10 day(s).
| Time | Temp. | Humidity | Pressure | Rain* | Wind** | Luminosity | Snow |
|---|---|---|---|---|---|---|---|
| 1787747120 | 17.22° C | 95% | 1017.8 hPa | 0 mm | - | 47 W/m² | - |
| 1787746817 | 17.22° C | 96% | 1017.7 hPa | 0 mm | - | 44 W/m² | - |
| 1787746515 | 16.67° C | 97% | 1017.6 hPa | 0 mm | - | 45 W/m² | - |
| 1787746215 | 16.67° C | 98% | 1017.7 hPa | 0 mm | - | 45 W/m² | - |
| 1787745909 | 16.67° C | 98% | 1017.7 hPa | 0 mm | - | 39 W/m² | - |
| 1787745608 | 16.67° C | 98% | 1017.6 hPa | 0 mm | - | 38 W/m² | - |
| 1787745303 | 16.11° C | 98% | 1017.7 hPa | 0 mm | - | 35 W/m² | - |
| 1787744997 | 16.11° C | 98% | 1017.6 hPa | 0 mm | - | 31 W/m² | - |
| 1787744693 | 16.11° C | 98% | 1017.6 hPa | 0 mm | - | 26 W/m² | - |
| 1787744390 | 16.11° C | 98% | 1017.6 hPa | 0 mm | - | 23 W/m² | - |
| 1787744085 | 16.11° C | 98% | 1017.7 hPa | 0 mm | - | 19 W/m² | - |
| 1787743785 | 16.11° C | 98% | 1017.6 hPa | 0 mm | - | 15 W/m² | - |
| 1787743484 | 16.11° C | 98% | 1017.6 hPa | 0 mm | - | 11 W/m² | - |
| 1787743181 | 16.11° C | 98% | 1017.5 hPa | 0 mm | - | 3 W/m² | - |
| 1787742876 | 16.11° C | 98% | 1017.4 hPa | 0 mm | - | 3 W/m² | - |
| 1787741354 | 16.11° C | 98% | 1017.4 hPa | 0 mm | - | 0 W/m² | - |
| 1787741053 | 16.11° C | 98% | 1017.4 hPa | 0 mm | - | 0 W/m² | - |
| 1787740748 | 16.11° C | 98% | 1017.4 hPa | 0 mm | - | 0 W/m² | - |
| 1787740447 | 16.11° C | 98% | 1017.2 hPa | 0 mm | - | 0 W/m² | - |
| 1787739838 | 16.11° C | 98% | 1017.2 hPa | 0 mm | - | 0 W/m² | - |
| 1787739534 | 16.11° C | 98% | 1017.5 hPa | 0 mm | - | 0 W/m² | - |
| 1787738324 | 16.11° C | 98% | 1017.4 hPa | 0 mm | - | 0 W/m² | - |
| 1787738020 | 16.11° C | 98% | 1017.1 hPa | 0 mm | - | 0 W/m² | - |
| 1787736806 | 16.11° C | 98% | 1017.2 hPa | 0 mm | - | 0 W/m² | - |
| 1787736501 | 16.11° C | 98% | 1017.2 hPa | 0 mm | - | 0 W/m² | - |
* Rain latest hour (hover to see other rain measurements)
** Current wind speed in m/s (hover to see current wind gust speed)